Location: Powder Track
(41.8531°N, 72.3584°W)
Time: 13:03:25
(UTC+00:00)

Vanguard 3 - All Passes

Search period start: 02 August 2021 00:00
Search period end: 12 August 2021 00:00
Orbit: 508 x 3261 km, 33.4° (Epoch: 02 August)

Date Brightness Start Highest point End Pass type
(mag) Time Alt. Az. Time Alt. Az. Time Alt. Az.
02 Aug - 00:20:18 10° WSW 00:36:59 66° S 00:56:25 10° ESE visible
02 Aug - 02:34:43 10° W 02:53:13 56° SSW 03:10:19 10° SE visible
02 Aug - 04:51:53 10° W 05:07:30 31° SW 05:20:16 10° SSE visible
02 Aug - 18:52:11 10° SE 18:55:06 11° SE 18:58:20 10° ESE daylight
02 Aug - 20:55:09 10° SSW 21:06:03 39° SE 21:22:04 10° E daylight
02 Aug - 23:05:33 10° WSW 23:20:07 62° SSE 23:39:38 10° E daylight
03 Aug - 01:18:42 10° W 01:36:16 63° S 01:55:03 10° ESE visible
03 Aug - 03:34:07 10° W 03:51:46 43° SSW 04:07:15 10° SSE visible
03 Aug - 05:54:40 10° W 06:04:37 17° SW 06:13:17 10° SSW visible
03 Aug - 19:43:12 10° S 19:51:31 25° SE 20:03:16 10° E daylight
03 Aug - 21:51:34 10° SW 22:03:55 53° SSE 22:22:11 10° E daylight
04 Aug - 00:03:25 10° WSW 00:19:13 65° S 00:38:51 10° ESE visible
04 Aug - 02:17:29 10° W 02:35:19 53° SSW 02:52:57 10° SE visible
04 Aug - 04:34:34 10° W 04:49:36 28° SW 05:02:39 10° S visible
04 Aug - 18:34:09 10° SE 18:37:46 12° SE 18:41:58 10° ESE daylight
04 Aug - 20:38:27 10° SSW 20:48:35 40° SSE 21:04:13 10° E daylight
04 Aug - 22:48:51 10° WSW 23:02:29 63° S 23:21:52 10° E daylight
05 Aug - 01:01:42 10° W 01:18:25 61° SSW 01:37:33 10° ESE visible
05 Aug - 03:16:51 10° W 03:33:50 40° SSW 03:49:43 10° SSE visible
05 Aug - 05:38:13 10° WSW 05:46:50 15° SW 05:54:41 10° SSW visible
05 Aug - 19:26:23 10° S 19:34:10 26° SE 19:45:36 10° E daylight
05 Aug - 21:34:59 10° SW 21:46:27 55° SSE 22:04:17 10° E daylight
05 Aug - 23:46:39 10° W 00:01:31 64° S 00:21:10 10° ESE daylight
06 Aug - 02:00:24 10° W 02:17:24 51° SSW 02:35:22 10° SE visible
06 Aug - 04:17:29 10° W 04:31:42 26° SW 04:44:45 10° S visible
06 Aug - 18:16:42 10° SSE 18:20:33 13° SE 18:25:10 10° ESE daylight
06 Aug - 20:21:52 10° SW 20:31:15 42° SSE 20:46:18 10° E daylight
06 Aug - 22:32:16 10° WSW 22:44:59 63° S 23:04:01 10° E daylight
07 Aug - 00:44:50 10° W 01:00:38 58° SSW 01:19:51 10° ESE visible
07 Aug - 02:59:45 10° W 03:15:54 37° SW 03:31:57 10° SSE visible
07 Aug - 05:22:32 10° WSW 05:29:01 13° SW 05:35:13 10° SSW visible
07 Aug - 19:09:43 10° SSW 19:16:59 27° SE 19:27:54 10° E daylight
07 Aug - 21:18:30 10° WSW 21:29:07 55° SSE 21:46:20 10° E daylight
07 Aug - 23:30:01 10° W 23:43:54 63° S 00:03:20 10° ESE daylight
08 Aug - 01:43:27 10° W 01:59:32 47° SSW 02:17:36 10° SE visible
08 Aug - 04:00:39 10° W 04:13:48 23° SW 04:26:30 10° S visible
08 Aug - 17:59:34 10° SSE 18:03:26 14° SE 18:08:11 10° ESE daylight
08 Aug - 20:05:26 10° SW 20:14:05 43° SSE 20:28:23 10° E daylight
08 Aug - 22:15:47 10° WSW 22:27:35 62° S 22:46:04 10° ESE daylight
09 Aug - 00:28:06 10° W 00:42:54 55° SSW 01:02:00 10° SE visible
09 Aug - 02:42:51 10° W 02:57:59 34° SW 03:13:54 10° SSE visible
09 Aug - 05:09:42 10° WSW 05:11:15 10° SW 05:12:47 10° SW visible
09 Aug - 18:53:12 10° SSW 18:59:54 28° SE 19:10:14 10° E daylight
09 Aug - 21:02:08 10° WSW 21:11:55 56° SSE 21:28:20 10° E daylight
09 Aug - 23:13:28 10° W 23:26:24 60° S 23:45:23 10° ESE daylight
10 Aug - 01:26:40 10° W 01:41:43 44° SSW 01:59:36 10° SE visible
10 Aug - 03:44:11 10° W 03:55:57 20° SW 04:07:49 10° S visible
10 Aug - 17:42:40 10° SSE 17:46:26 14° SE 17:51:09 10° ESE daylight
10 Aug - 19:49:05 10° SW 19:57:03 44° SSE 20:10:29 10° E daylight
10 Aug - 21:59:25 10° WSW 22:10:19 61° S 22:28:03 10° ESE daylight
11 Aug - 00:11:30 10° W 00:25:16 52° SSW 00:43:58 10° SE visible
11 Aug - 02:26:11 10° W 02:40:09 30° SW 02:55:35 10° SSE visible
11 Aug - 18:36:48 10° SSW 18:42:58 29° SE 18:52:37 10° E daylight
11 Aug - 20:45:52 10° WSW 20:54:51 56° SSE 21:10:21 10° E daylight
11 Aug - 22:57:02 10° W 23:08:59 57° S 23:27:19 10° ESE daylight
